IUS DEB, 43366

Orbit data source: Space-Track

IUS DEB, 43366 is space debris originally from a launch on Fri, 23 Jul 1999 UTC launched from the Air Force Eastern Test Range (AFETR). Debris objects in space refer to the collection of defunct objects orbiting the Earth. Examples of debris include non-operational satellites, rocket bodies, and fragments generated from explosions, collisions, or faulty payload assembly.

Loading next visibility...
Identifier
43366, 1999-040P
Orbit
Active
Country
Flag of USUS
Related business
Manufacturer
Boeing/Kent
Mission
Spacecraft
Bus & Motor
Unknown
Mass
Unknown
Launch date (UTC)
1999-07-23 (26 years ago)
Launch vehicle
Unknown
Launch site
Air Force Eastern Test Range (AFETR)
Object type
Payload
Rocket body
Debris
Shape & HBR
Unknown shape, 0.1 m
Radar Cross Section
Small (<0.1 m²)

Expand to show TLE details & history
Last TLE update: 3 days ago

TLE from 3 days ago
0 IUS DEB
1 43366U 99040P   25300.20386568  .00001144  00000-0  53520-2 0  9999
2 43366  28.1327 298.6381 3821841  86.2520 315.6260  7.03122304251861
Epoch: 2025-10-27T04:53Z
TLE epoch observation values (Epoch: 2025-10-27T04:53:33.994Z)
Latitude
-0.00003°
Longitude
-170.56267°
Altitude
3,206.325 km
Speed
6.968 km/s
True Right ascension
19h 54m 33s
True Declination
0° 00' 00"
Sunlit
Object was in daylight at epoch
Visualization orbit readout
Latitude
Unknown
Longitude
Unknown
Altitude
Unknown
Speed
Unknown
Apparent Right ascension
Unknown
Apparent Declination
Unknown
Sunlit
N/A
Visualization observer readout
Local Sidereal Time
13:19:46
Azimuth
Unknown
Elevation
Unknown
Doppler factor
Unknown
Orbital elements
Apogee altitude
9,534.276 km
Perigee altitude
734.477 km
Semi-major axis
11,512.514 km
Eccentricity
0.38218
Inclination
28.1327°
RAAN
298.6381°
Arg. of periapsis
86.252°
True anomaly
273.79632°
Mean anomaly
315.626°
Eccentric anomaly
295.9335°
Mean motion
1.75707 °/min
Orbital period
204.89 mins
BSTAR
0.005352
Loading maneuver chart data...
Computing Atmospheric mass density...
Loading historical data...
Loading historical data...
Loading historical data...
Loading historical data...
Loading historical data...
Loading historical data...
Loading historical data...

Documentation

Showing up to 5 results
|